Regional Weather Roundup
Issued by NWS Mobile, AL

Home | Current Version | Previous Version | Text Only | Print | Product List | Glossary On
Versions: 1 2 3 4 5 6 7 8 9 10 11 12 13 14 15 16 17 18 19 20 21 22 23 24 25 26 27 28 29 30 31 32 33 34 35 36 37 38 39 40 41 42 43 44 45 46 47 48 49 50
000
ASUS44 KMOB 241212
RWRMOB
REGIONAL WEATHER ROUNDUP
NATIONAL WEATHER SERVICE MOBILE AL
700 AM CDT SAT JUN 24 2017

NOTE: "FAIR" INDICATES FEW OR NO CLOUDS BELOW 12,000 FEET WITH NO
      SIGNIFICANT WEATHER AND/OR OBSTRUCTIONS TO VISIBILITY.

  * THESE STATIONS ARE PART OF THE UNIVERSITY OF SOUTH ALABAMA
    MESONET AND ARE NOT UNDER NWS OR FAA QUALITY CONTROL.

ALZ061>064-241300-
COASTAL ALABAMA

CITY           SKY/WX    TMP DP  RH WIND       PRES   REMARKS
MOBILE REG APT CLOUDY    76  74  93 SW7       30.03S
6HR MIN TEMP:  75; 6HR MAX TEMP:  80; 6HR PCP:  0.08;

BROOKLEY FIELD PTSUNNY   77  77 100 VRB3      30.03R
6HR MIN TEMP:  76; 6HR MAX TEMP:  81;

USA CAMPUS*      N/A     73  72  94 CALM      30.02S
DOG RIVER*       N/A     75  75 100 W3        30.78R


CITY           SKY/WX    TMP DP  RH WIND       PRES   REMARKS
GULF SHORES    MOSUNNY   80  80 100 SW5       30.02S

$$

ALZ051>060-241300-
INTERIOR SOUTHWEST AND SOUTH CENTRAL ALABAMA

CITY           SKY/WX    TMP DP  RH WIND       PRES   REMARKS
GREENVILLE     CLOUDY    77  74  90 SW8       30.00R
6HR MIN TEMP:  74; 6HR MAX TEMP:  77;

EVERGREEN      CLOUDY    79  75  87 S9        30.00S
6HR MIN TEMP:  78; 6HR MAX TEMP:  79;

ATMORE*        NOT AVBL
ANDALUSIA/OPP  CLOUDY    80  75  84 SW5       30.02R
6HR MIN TEMP:  79; 6HR MAX TEMP:  80;

ANDALUSIA*       N/A     77  75  94 SW6       30.03R
FLORALA APT    CLOUDY    78  74  87 SW6       30.04R
6HR MIN TEMP:  77; 6HR MAX TEMP:  78;

FLORALA*         N/A     77  75  94 SE5       30.71R

$$

FLZ001>006-241300-
WESTERN FLORIDA PANHANDLE

CITY           SKY/WX    TMP DP  RH WIND       PRES   REMARKS
PENSACOLA      SUNNY     81  76  84 SW8       30.02R
6HR MIN TEMP:  80; 6HR MAX TEMP:  81;

NAS PENSACOLA  MOSUNNY   81  76  84 SW9       30.01R
6HR MIN TEMP:  79; 6HR MAX TEMP:  81;

MILTON         MOSUNNY   78  77  96 S8        30.01R
6HR MIN TEMP:  76; 6HR MAX TEMP:  78; 6HR PCP: TRACE;

WHTNG S FIELD  SUNNY     81  78  91 VRB6      30.01R
6HR MIN TEMP:  79; 6HR MAX TEMP:  81;



CITY           SKY/WX    TMP DP  RH WIND       PRES   REMARKS
JAY*             N/A     77  77 100 S8        30.02R
DUKE FIELD     SUNNY     77  76  96 S8        30.01S
CRESTVIEW      SUNNY     76  75  97 SW5       30.03R FOG
6HR MIN TEMP:  75; 6HR MAX TEMP:  77;

VALPARAISO     MOSUNNY   80  75  86 SW6       30.02R
6HR MIN TEMP:  78; 6HR MAX TEMP:  80;

DESTIN         PTSUNNY   83  81  94 SW6       30.02R HX  97
6HR MIN TEMP:  82; 6HR MAX TEMP:  83;


$$

MSZ076-079-241300-
INTERIOR SOUTHEAST MISSISSIPPI

CITY           SKY/WX    TMP DP  RH WIND       PRES   REMARKS
LEAKESVILLE*   NOT AVBL
AGRICOLA*        N/A     73  73 100 S3        30.00R

$$

MARINE OBSERVATIONS

STATION/POSITION TIME  TEMP    WIND        PRES    WAVE
                       AIR SEA DIR/SP/G            HT/PER
                 (UTC) (F)     (DEG/KT/KT) (MB)    (FT/S)
PASCAGOULA       1148   80     240/  4/  7 1016.4R
PETIT BOIS ISLND 1148   80     230/ 12/ 13 1017.3R
GRAND BAY        1030   79     260/  6     1017.0R
KATRINA CUT      1130   81     250/ 13     1016.6R
CEDAR POINT      1130   81     250/ 13     1016.6R
E DAUPHIN ISLAND 1100   81     220/  9/ 12 1016.0R
MIDDLE BAY LIGHT 1130   80     230/ 15     1016.3S
USCG MOBILE BAY  1148   76 81  240/  4/  7 1017.2R
STATE DOCKS      1148   77 80              1016.4R
MEAHER PARK      1130   79     210/  6     1016.6R
FORT MORGAN      1148   81     250/ 12/ 15   N/A
12 S ORANGE BCH  1050   80 81  230/ 10/ 12 1015.8R   3/ 6
PENSACOLA BAY    1148   81 82              1016.7R
64 S DAUPHIN ISL 1150   81 81  210/  8/ 10 1017.0R   3/ 6
67 S FORT MORGAN 1130   79     220/ 10     1016.9R

$$

SELECTED LOCATIONS ACROSS THE REGION

CITY           SKY/WX    TMP DP  RH WIND       PRES   REMARKS
NEW ORLEANS    LGT RAIN  79  78  97 CALM      30.03R FOG
GULFPORT       CLOUDY    78  77  96 CALM      30.00S
PASCAGOULA AP  LGT RAIN  78  75  90 CALM      30.02R FOG
PASCAGOULA*    NOT AVBL
HATTIESBURG    CLOUDY    73  72  96 W3        30.04R
LAUREL         CLOUDY    72  70  94 NW6       30.05R
MERIDIAN       CLOUDY    75  74  96 W3        30.02R
JACKSON        CLOUDY    72  70  93 NW7       30.04R
MONTGOMERY     CLOUDY    79  74  84 VRB5      29.99R
TROY           CLOUDY    76  76 100 S6        30.01R
ASHFORD*         N/A     77  75  94 SW6       30.03R
DOTHAN         PTSUNNY   77  76  96 SW7       30.06R
PANAMA CITY    MOSUNNY   79  76  90 SW5       30.02R

$$




USA.gov is the U.S. government's official web portal to all federal, state and local government web resources and services.